Location: Cutler
(25.6150°N, 80.3110°W)
Time: 05:01:01
(UTC-05:00)

Vanguard 1 - Pass Details

Date: 23 January 2018
Orbit: 650 x 3833 km, 34.2° (Epoch: 19 February)

Event Time Altitude Azimuth Distance (km) Brightness Sun altitude
Rises 03:17:57 0° 293° (WNW) 4,591 - -51.6°
Reaches altitude 10° 03:20:25 10° 295° (WNW) 3,909 - -51.0°
Maximum altitude 03:31:34 76° 22° (NNE) 2,556 - -48.5°
Exits shadow 03:32:36 74° 53° (NE) 2,649 12.0 -48.3°
Drops below altitude 10° 03:52:03 10° 108° (ESE) 6,663 14.8 -43.9°
Sets 03:57:49 0° 110° (ESE) 7,886 15.4 -42.6°
